Vorticity
nan nan nan nan nan nan nan nan nan nan nan nan nan nan nan nan nan nan nan nan nan nan nan nan nan nan nan nan nan nan nan nan nan nan nan nan nan nan nan nan nan nan nan
nan 7 6 6 7 7 7 7 8 7 7 7 6 7 7 7 8 6 7 9 10 7 8 7 8 8 8 12 12 9 11 11 10 9 15 17 6 5 5 6 5 5 nan
nan 6 6 7 8 8 7 7 7 6 8 8 7 8 7 7 7 7 7 6 12 11 7 9 9 8 12 15 9 7 5 6 6 5 8 18 19 12 7 5 5 5 nan
nan 4 6 7 8 7 7 7 7 7 8 8 8 8 8 7 6 8 7 8 6 10 13 9 6 9 15 16 9 6 5 5 5 6 7 8 12 13 15 16 7 5 nan
nan 5 6 7 7 7 7 8 7 8 8 7 7 7 7 7 9 9 6 8 9 9 9 10 7 11 16 14 11 6 5 5 6 6 5 6 6 6 9 16 17 13 nan
nan 5 6 8 7 7 8 8 8 7 6 7 7 7 8 7 8 8 9 10 12 12 11 9 11 9 14 20 13 7 5 5 5 6 6 6 6 6 7 6 12 19 nan
nan 6 6 9 8 8 8 7 8 7 7 7 7 9 8 7 11 11 10 9 8 9 11 13 15 11 6 9 12 11 7 5 5 6 6 6 7 8 9 10 9 10 nan
nan 8 8 10 10 10 11 12 9 8 8 9 7 9 9 11 10 8 8 8 7 8 9 11 12 11 8 3 3 6 8 6 5 6 8 9 9 11 10 11 9 6 nan
nan 11 10 10 13 12 10 9 9 12 11 7 8 8 8 7 7 8 7 7 9 8 8 9 9 9 9 8 7 4 5 8 7 6 8 11 13 12 10 9 8 8 nan
nan 11 11 11 12 11 9 7 8 7 8 9 10 9 8 8 7 8 8 5 7 8 8 8 7 7 7 6 5 6 8 9 9 7 8 9 8 7 6 10 14 13 nan
nan 11 11 9 6 7 10 7 7 7 8 9 9 9 9 9 9 7 7 7 6 6 6 8 8 8 7 7 7 5 7 9 11 9 8 7 6 6 7 6 11 12 nan
nan 9 10 7 7 10 9 8 6 6 7 8 8 9 9 9 10 9 8 7 7 8 9 9 9 8 8 6 6 6 9 9 9 9 10 9 8 9 10 9 7 6 nan
nan 11 8 7 8 8 9 9 8 8 8 8 8 8 9 8 8 9 8 9 8 9 9 8 10 8 9 9 6 5 8 10 8 9 10 8 10 10 11 10 8 8 nan
nan 9 7 9 10 11 9 8 7 9 9 9 7 8 9 10 9 9 9 9 9 10 8 11 10 9 8 8 8 9 6 6 9 10 9 11 11 9 8 8 8 7 nan
nan 10 8 8 10 11 11 9 8 9 8 9 9 8 8 9 10 10 10 10 8 8 11 13 8 10 9 9 8 9 7 8 9 9 8 8 7 8 8 8 7 7 nan
nan 10 12 11 9 9 8 8 9 10 8 8 10 9 8 9 9 10 10 10 8 7 7 9 10 10 10 8 9 9 8 7 9 10 8 8 7 8 7 7 7 8 nan
nan 11 11 10 8 8 8 8 9 9 8 8 8 10 10 9 8 9 9 9 9 9 9 6 8 10 12 9 7 7 8 9 8 9 10 9 8 7 7 8 8 8 nan
nan 10 9 8 8 8 9 9 9 8 9 9 10 10 9 8 8 7 8 8 9 9 10 9 9 9 10 9 8 8 7 8 8 7 9 10 9 6 6 7 8 10 nan
nan 9 9 9 8 8 9 9 9 9 9 10 11 11 11 10 7 7 8 8 10 11 9 11 9 9 10 10 8 8 8 8 8 7 7 7 8 6 6 7 9 10 nan
nan 9 8 8 9 9 9 9 9 9 10 10 9 10 10 10 10 9 9 10 9 10 10 10 10 9 9 9 9 9 8 9 9 7 6 7 7 6 6 8 9 9 nan
nan 9 9 9 9 7 10 10 9 9 9 8 8 9 9 9 10 12 13 13 10 9 9 11 9 9 10 10 10 9 10 10 7 9 8 8 8 8 7 7 6 9 nan
nan 9 8 9 7 9 12 7 7 9 10 8 8 9 10 10 10 11 11 11 14 14 10 8 9 9 9 9 11 10 10 8 9 10 10 9 8 8 8 7 8 8 nan
nan 9 9 8 8 12 11 7 5 7 10 11 10 8 8 9 10 8 7 7 8 10 13 13 10 9 10 12 9 10 9 9 11 11 10 9 10 9 7 7 8 9 nan
nan 9 9 9 8 12 11 8 7 7 10 12 11 9 9 9 8 8 6 6 6 8 13 15 13 14 15 15 11 12 11 9 9 8 11 11 10 10 8 5 5 10 nan
nan 9 10 10 9 11 12 8 7 8 10 10 10 10 10 10 10 8 7 9 8 9 9 11 14 15 13 12 13 11 11 8 8 9 10 10 11 10 10 8 4 6 nan
nan nan nan nan nan nan nan nan nan nan nan nan nan nan nan nan nan nan nan nan nan nan nan nan nan nan nan nan nan nan nan nan nan nan nan nan nan nan nan nan nan nan nan
CAPE
0 0 0 0 0 0 0 0 0 0 0 0 0 0 0 0 0 0 0 0 0 0 0 40 66 76 113 94 52 67 79 70 65 69 17 0 0 0 0 0 0 0 0
0 0 12 22 1 0 0 0 0 0 0 0 0 0 0 0 0 0 4 9 0 0 0 24 67 95 102 81 73 68 59 52 51 55 84 105 12 0 0 0 0 0 0
57 26 82 77 38 10 0 0 0 0 0 0 0 0 0 5 7 13 15 17 6 0 0 11 45 103 120 81 57 92 90 44 9 0 33 91 120 61 4 0 0 0 0
112 110 166 178 66 42 28 7 0 0 0 0 3 31 47 14 12 19 20 14 18 20 8 1 18 44 76 106 83 104 56 22 12 14 12 0 23 48 72 90 51 11 0
215 165 193 205 119 66 33 23 0 0 12 64 109 139 105 44 17 15 12 4 3 0 4 7 0 0 18 104 104 91 40 14 7 2 1 0 7 7 6 53 89 125 58
396 283 234 213 148 85 10 5 0 4 86 171 81 49 51 23 1 0 0 0 0 0 0 0 1 22 1 48 101 53 21 13 7 6 2 0 0 1 5 8 16 61 117
233 231 212 216 147 70 26 19 20 65 134 188 135 57 21 4 0 0 0 0 0 0 0 0 7 38 2 0 15 12 16 12 22 17 3 6 7 5 7 5 29 66 75
167 137 142 155 104 89 102 87 151 223 192 226 146 156 11 0 0 0 0 0 0 0 0 0 3 5 8 5 1 0 0 1 12 19 6 2 1 4 11 53 34 29 35
178 147 78 75 126 171 212 147 62 130 224 173 147 96 6 0 0 0 0 0 0 0 0 0 0 0 0 0 0 0 0 0 0 9 30 35 31 46 52 41 24 20 9
96 50 76 14 9 7 20 7 0 14 139 177 157 57 79 0 0 0 0 1 0 0 0 0 0 0 0 0 0 0 0 0 0 2 14 29 47 53 59 73 29 31 24
1 22 25 1 1 0 1 0 0 0 0 0 0 0 0 0 0 0 0 0 1 0 0 0 0 0 0 0 0 0 0 0 0 0 2 12 6 7 32 49 62 45 35
0 0 1 1 1 1 0 0 0 0 0 0 0 0 0 0 0 0 0 0 0 0 0 0 0 0 0 0 0 0 0 0 0 2 7 14 9 1 6 23 22 21 23
1 1 0 1 1 0 0 0 0 0 0 0 0 0 0 0 0 0 0 0 0 0 3 0 0 0 0 0 0 0 0 0 0 2 12 9 2 1 6 13 20 16 18
4 1 1 0 0 0 0 0 0 0 0 0 0 0 0 0 1 1 3 1 5 5 3 5 0 2 1 0 0 0 0 0 0 2 3 6 2 3 8 15 14 12 16
3 1 1 0 0 0 0 0 0 0 0 0 0 0 0 1 2 6 8 7 10 4 0 8 6 2 1 1 0 0 0 0 0 3 5 7 8 6 4 1 2 3 9
1 0 0 0 0 0 0 0 0 0 0 0 0 0 0 0 3 4 8 12 7 7 4 11 4 2 2 0 0 0 0 0 0 0 1 0 2 3 1 1 3 6 5
0 0 0 0 0 0 0 0 0 0 0 0 0 0 0 0 0 1 0 1 8 15 26 7 0 1 2 2 0 0 0 0 0 0 0 0 0 0 0 0 0 3 2
0 0 0 0 0 0 0 0 0 0 0 0 0 0 0 0 0 1 2 5 6 13 15 17 1 2 1 1 0 0 0 0 0 0 0 0 0 0 0 0 0 0 1
0 0 0 0 0 0 0 0 0 0 0 0 0 0 0 0 2 3 2 3 7 1 9 9 5 2 2 0 0 0 0 0 0 0 0 0 1 0 0 0 0 0 0
0 0 0 0 0 0 0 0 0 0 0 0 0 0 0 0 1 3 0 0 0 1 3 6 6 2 1 0 0 0 0 0 0 0 0 0 0 0 0 0 0 0 0
0 0 0 0 0 0 0 0 0 0 0 0 0 0 0 0 0 0 0 3 0 0 1 3 1 1 0 0 0 0 0 0 0 0 0 0 0 0 0 0 0 1 0
0 0 0 0 0 0 0 0 0 0 0 0 0 0 0 0 0 0 0 0 0 0 1 2 1 0 0 0 0 0 0 0 0 0 0 0 0 0 0 0 2 2 4
0 0 0 0 0 0 0 0 0 0 0 1 1 0 0 0 0 0 0 0 0 0 0 0 0 0 0 0 0 0 0 0 0 0 0 0 0 0 0 0 1 2 2
0 0 0 0 0 0 0 0 0 2 2 3 1 0 0 0 0 0 0 0 0 0 0 0 0 0 0 0 0 0 0 0 0 0 0 0 0 0 0 0 0 2 2
0 0 0 0 0 0 0 0 1 3 2 2 0 0 0 0 0 0 0 0 0 0 0 0 0 0 0 0 0 0 0 0 0 0 0 0 0 0 0 0 0 0 0
0 0 0 0 0 0 0 0 2 0 0 0 0 0 0 0 0 0 0 0 0 0 0 0 0 0 0 0 0 0 0 0 0 0 0 0 0 0 0 0 0 0 0